FW0277 Weather Reports


Display with metric or nautical units.
time (UTC)temp
F
wind
direction
speed
MPH
gust
MPH
rain 1hr
in
rain 24hr
in
rain mn
in
humidity
%
barometer
mb
20260505074535 57 41 0.0 2.0 0.00 0.00 0.00 74 1014.1
20260505073032 57 99 0.0 1.0 0.00 0.00 0.00 74 1014.0
20260505071531 57 81 0.0 1.0 0.00 0.00 0.00 74 1014.1
20260505070031 57 101 0.0 1.0 0.00 0.00 0.00 74 1014.1
20260505064534 57 101 0.0 1.0 0.00 0.00 0.00 74 1014.0
20260505063028 57 330 0.0 3.0 0.00 0.00 0.00 74 1014.0
20260505061527 57 298 0.0 1.0 0.00 0.00 0.00 72 1014.0
20260505060023 58 360 0.0 1.0 0.00 0.00 0.00 72 1013.9
20260505054541 58 113 0.0 1.0 0.00 0.00 0.00 71 1013.9
20260505053023 58 82 0.0 1.0 0.00 0.00 0.00 70 1013.9
20260505051519 59 78 0.0 1.0 0.00 0.00 0.00 70 1013.9
20260505041514 59 61 0.0 1.0 0.00 0.00 0.00 70 1013.7
20260505040013 59 69 0.0 1.0 0.00 0.00 0.00 69 1013.8
20260505034517 60 68 0.0 1.0 0.00 0.00 0.00 69 1013.7
20260505033011 60 101 0.0 1.0 0.00 0.00 0.00 69 1013.9
20260505031511 61 102 0.0 1.0 0.00 0.00 0.00 67 1014.0
20260505030032 61 105 0.0 1.0 0.00 0.00 0.00 67 1014.0
20260505024515 61 120 0.0 1.0 0.00 0.00 0.00 66 1014.2
20260505023009 62 60 0.0 1.0 0.00 0.00 0.00 64 1014.2
20260505021509 62 70 0.0 1.0 0.00 0.00 0.00 64 1014.2
20260505020008 62 357 0.0 0.0 0.00 0.00 0.00 64 1014.1
20260505014515 63 357 0.0 1.0 0.00 0.00 0.00 62 1013.9
20260505013016 64 70 0.0 0.0 0.00 0.00 0.00 60 1013.8
20260505011508 65 23 0.0 2.0 0.00 0.00 0.00 59 1013.8
20260505010007 66 105 0.0 1.0 0.00 0.00 0.00 59 1013.4
20260505004518 67 342 0.0 2.0 0.00 0.00 0.00 58 1013.4
20260505003006 67 288 0.0 1.0 0.00 0.00 0.00 56 1013.2
20260505001506 69 127 0.0 0.0 0.00 0.00 0.00 53 1013.2
20260505000007 70 272 0.0 1.0 0.00 0.00 0.00 51 1013.1
20260504234506 70 271 0.0 1.0 0.00 0.00 0.00 53 1013.1
20260504233004 71 251 0.0 3.0 0.00 0.00 0.00 49 1013.0
20260504231503 72 285 0.0 1.0 0.00 0.00 0.00 50 1013.0
20260504230003 73 164 0.0 2.0 0.00 0.00 0.00 46 1013.0
20260504224500 73 321 0.0 2.0 0.00 0.00 0.00 48 1013.2
20260504223001 74 308 2.0 7.0 0.00 0.00 0.00 48 1013.3
20260504221646 76 312 1.0 9.0 0.00 0.00 0.00 43 1013.2
20260504220059 76 233 2.0 8.0 0.00 0.00 0.00 43 1013.2
20260504214600 76 253 5.0 11.0 0.00 0.00 0.00 46 1013.1
20260504213101 76 223 3.0 11.0 0.00 0.00 0.00 47 1013.2
20260504211555 77 309 2.0 10.0 0.00 0.00 0.00 48 1013.5
20260504210054 76 278 5.0 10.0 0.00 0.00 0.00 48 1013.5
20260504204552 77 286 1.0 10.0 0.00 0.00 0.00 49 1013.8
20260504203051 76 25 2.0 8.0 0.00 0.00 0.00 50 1013.8
20260504201550 76 277 3.0 11.0 0.00 0.00 0.00 50 1014.0
20260504200047 76 70 2.0 6.0 0.00 0.00 0.00 50 1014.1
20260504194551 75 326 2.0 9.0 0.00 0.00 0.00 51 1014.2
20260504193047 74 278 4.0 10.0 0.00 0.00 0.00 51 1014.7
20260504191605 75 314 1.0 11.0 0.00 0.00 0.00 54 1015.0
20260504190040 76 116 2.0 8.0 0.00 0.00 0.00 51 1015.3
20260504184543 74 288 1.0 7.0 0.00 0.00 0.00 57 1015.5
20260504183034 73 342 2.0 11.0 0.00 0.00 0.00 57 1015.8
20260504181533 74 309 1.0 7.0 0.00 0.00 0.00 51 1015.9
20260504180033 73 251 0.0 4.0 0.00 0.00 0.00 55 1016.1
20260504174526 72 134 2.0 9.0 0.00 0.00 0.00 53 1016.3
20260504173024 73 273 3.0 9.0 0.00 0.00 0.00 51 1016.6
20260504171522 72 161 2.0 6.0 0.00 0.00 0.00 53 1016.7
20260504081601 46 41 0.0 1.0 0.00 0.00 0.00 79 1018.6